W9QL-13 Weather Reports


Display with metric or nautical units.
time (UTC)temp
F
wind
direction
speed
MPH
gust
MPH
rain 1hr
in
rain 24hr
in
rain mn
in
humidity
%
barometer
mb
20260504033751 57 256 0.0 0.0 0.00 0.00 0.00 63 1004.0
20260504033251 57 256 0.0 0.0 0.00 0.00 0.00 63 1004.0
20260504032751 57 257 1.0 1.0 0.00 0.00 0.00 64 1004.0
20260504032251 57 257 1.0 2.0 0.00 0.00 0.00 64 1004.0
20260504031751 57 257 1.0 0.0 0.00 0.00 0.00 64 1004.1
20260504031251 57 247 0.0 0.0 0.00 0.00 0.00 65 1004.0
20260504030751 57 247 0.0 0.0 0.00 0.00 0.00 64 1004.1
20260504030251 56 262 0.0 5.0 0.00 0.00 0.00 64 1004.1
20260504025721 56 274 1.0 1.0 0.00 0.00 0.00 65 1004.1
20260504025151 56 294 1.0 2.0 0.00 0.00 0.00 65 1004.1
20260504024621 56 246 0.0 0.0 0.00 0.00 0.00 64 1004.1
20260504024121 56 264 0.0 0.0 0.00 0.00 0.00 64 1004.0
20260504023621 57 264 0.0 0.0 0.00 0.00 0.00 64 1004.0
20260504023050 57 264 0.0 0.0 0.00 0.00 0.00 62 1004.1
20260504022552 57 264 0.0 0.0 0.00 0.00 0.00 62 1004.1
20260504022050 57 264 0.0 0.0 0.00 0.00 0.00 62 1004.1
20260504021520 58 264 0.0 0.0 0.00 0.00 0.00 61 1004.0
20260504021020 58 264 0.0 0.0 0.00 0.00 0.00 60 1004.0
20260504020520 58 264 0.0 0.0 0.00 0.00 0.00 59 1004.0
20260504020020 59 264 0.0 0.0 0.00 0.00 0.00 58 1003.9
20260504015450 59 264 0.0 0.0 0.00 0.00 0.00 57 1003.9
20260504014950 60 264 0.0 0.0 0.00 0.00 0.00 56 1003.9
20260504014450 60 264 0.0 0.0 0.00 0.00 0.00 55 1003.9
20260504013950 61 264 0.0 0.0 0.00 0.00 0.00 54 1003.8
20260504013420 61 264 0.0 0.0 0.00 0.00 0.00 53 1003.7
20260504012920 62 264 0.0 0.0 0.00 0.00 0.00 52 1003.7
20260504012420 62 264 0.0 0.0 0.00 0.00 0.00 51 1003.7
20260504011920 63 264 0.0 0.0 0.00 0.00 0.00 50 1003.6
20260504011420 63 264 0.0 0.0 0.00 0.00 0.00 50 1003.5
20260504010920 63 264 0.0 0.0 0.00 0.00 0.00 49 1003.5
20260504010350 64 264 0.0 0.0 0.00 0.00 0.00 49 1003.4
20260504005850 64 282 0.0 0.0 0.00 0.00 0.00 48 1003.4
20260504005350 64 289 1.0 5.0 0.00 0.00 0.00 48 1003.4
20260504004850 65 261 0.0 0.0 0.00 0.00 0.00 46 1003.3
20260504004350 65 295 1.0 2.0 0.00 0.00 0.00 46 1003.3
20260504003850 65 278 1.0 2.0 0.00 0.00 0.00 46 1003.4
20260504003350 65 287 1.0 2.0 0.00 0.00 0.00 45 1003.4
20260504002850 65 295 1.0 3.0 0.00 0.00 0.00 45 1003.4
20260504002350 66 281 2.0 3.0 0.00 0.00 0.00 46 1003.4
20260504001850 66 296 1.0 3.0 0.00 0.00 0.00 44 1003.4
20260504001350 66 297 3.0 2.0 0.00 0.00 0.00 45 1003.3
20260504000850 66 328 0.0 0.0 0.00 0.00 0.00 44 1003.3
20260504000354 66 323 0.0 0.0 0.00 0.00 0.00 44 1003.3
20260503235820 66 277 3.0 3.0 0.00 0.00 0.00 44 1003.4
20260503235320 66 277 2.0 3.0 0.00 0.00 0.00 43 1003.4
20260503234750 67 288 6.0 7.0 0.00 0.00 0.00 42 1003.2
20260503234251 67 305 5.0 5.0 0.00 0.00 0.00 43 1003.4
20260503233750 67 285 2.0 6.0 0.00 0.00 0.00 42 1003.4
20260503233250 67 289 5.0 7.0 0.00 0.00 0.00 42 1003.4
20260503232721 67 297 5.0 6.0 0.00 0.00 0.00 40 1003.5
20260503232150 67 298 2.0 5.0 0.00 0.00 0.00 40 1003.4
20260503231621 68 286 3.0 8.0 0.00 0.00 0.00 41 1003.5
20260503231120 68 293 3.0 6.0 0.00 0.00 0.00 40 1003.6
20260503230550 68 288 5.0 9.0 0.00 0.00 0.00 40 1003.5
20260503230050 68 280 5.0 8.0 0.00 0.00 0.00 40 1003.7
20260503225520 68 299 6.0 9.0 0.00 0.00 0.00 40 1003.6
20260503225022 68 267 5.0 8.0 0.00 0.00 0.00 41 1003.6
20260503224449 68 274 5.0 6.0 0.00 0.00 0.00 41 1003.7
20260503223949 68 285 6.0 8.0 0.00 0.00 0.00 42 1003.7
20260503223419 67 282 6.0 8.0 0.00 0.00 0.00 41 1003.7
20260503222919 67 283 5.0 9.0 0.00 0.00 0.00 40 1003.7
20260503222419 67 280 5.0 9.0 0.00 0.00 0.00 40 1003.8
20260503221919 67 278 3.0 5.0 0.00 0.00 0.00 41 1003.8
20260503221419 67 273 5.0 12.0 0.00 0.00 0.00 40 1003.9
20260503220919 67 285 6.0 9.0 0.00 0.00 0.00 40 1003.9
20260503220419 67 288 7.0 9.0 0.00 0.00 0.00 40 1004.0
20260503215919 67 283 6.0 9.0 0.00 0.00 0.00 40 1003.8
20260503215419 67 270 5.0 7.0 0.00 0.00 0.00 40 1004.2
20260503214849 67 265 6.0 8.0 0.00 0.00 0.00 41 1004.0
20260503214349 67 295 6.0 9.0 0.00 0.00 0.00 40 1004.1
20260503213849 67 277 7.0 13.0 0.00 0.00 0.00 40 1004.3
20260503213349 67 280 5.0 6.0 0.00 0.00 0.00 40 1004.4
20260503212849 67 279 7.0 12.0 0.00 0.00 0.00 40 1004.4
20260503212319 67 278 6.0 13.0 0.00 0.00 0.00 40 1004.5
20260503211749 67 283 3.0 12.0 0.00 0.00 0.00 39 1004.6
20260503211252 67 271 5.0 9.0 0.00 0.00 0.00 40 1004.7
20260503210749 67 271 7.0 12.0 0.00 0.00 0.00 40 1004.5
20260503210249 66 287 6.0 7.0 0.00 0.00 0.00 40 1004.9
20260503205749 66 277 7.0 16.0 0.00 0.00 0.00 40 1004.9
20260503205249 66 279 7.0 9.0 0.00 0.00 0.00 40 1005.0
20260503204719 66 277 7.0 12.0 0.00 0.00 0.00 41 1004.7
20260503204219 66 282 7.0 9.0 0.00 0.00 0.00 44 1005.3
20260503203649 65 275 3.0 6.0 0.00 0.00 0.00 45 1005.4
20260503203119 65 275 5.0 9.0 0.00 0.00 0.00 45 1005.5
20260503202549 65 276 7.0 9.0 0.00 0.00 0.00 47 1005.7
20260503202019 64 259 3.0 5.0 0.00 0.00 0.00 46 1005.8
20260503201521 64 252 6.0 8.0 0.00 0.00 0.00 48 1006.0
20260503200949 64 270 5.0 7.0 0.00 0.00 0.00 46 1006.2
20260503200449 64 265 6.0 12.0 0.00 0.00 0.00 47 1006.4
20260503195949 64 252 6.0 7.0 0.00 0.00 0.00 47 1006.5
20260503195449 63 279 5.0 9.0 0.00 0.00 0.00 49 1006.6
20260503194949 63 251 7.0 13.0 0.00 0.00 0.00 47 1006.8
20260503194449 63 272 6.0 12.0 0.00 0.00 0.00 47 1006.9
20260503193949 62 274 6.0 8.0 0.00 0.00 0.00 46 1006.8
20260503193449 62 283 7.0 10.0 0.00 0.00 0.00 47 1006.9
20260503192948 62 277 5.0 10.0 0.00 0.00 0.00 45 1006.9
20260503192448 62 256 5.0 10.0 0.00 0.00 0.00 44 1006.9
20260503191948 63 267 7.0 9.0 0.00 0.00 0.00 43 1006.9
20260503191418 63 263 3.0 6.0 0.00 0.00 0.00 42 1006.9
20260503190918 62 281 6.0 8.0 0.00 0.00 0.00 48 1006.9
20260503190418 62 241 7.0 10.0 0.00 0.00 0.00 43 1006.9
20260503185918 61 283 6.0 12.0 0.00 0.00 0.00 45 1007.0
20260503185418 61 243 5.0 6.0 0.00 0.00 0.00 45 1007.0
20260503184848 61 255 7.0 8.0 0.00 0.00 0.00 44 1007.0
20260503184348 61 260 7.0 8.0 0.00 0.00 0.00 45 1007.1
20260503183848 60 273 7.0 10.0 0.00 0.00 0.00 45 1007.1
20260503183348 60 251 6.0 12.0 0.00 0.00 0.00 46 1007.3
20260503182848 60 255 7.0 12.0 0.00 0.00 0.00 48 1007.3
20260503182348 60 243 5.0 6.0 0.00 0.00 0.00 47 1007.4
20260503181818 60 258 6.0 9.0 0.00 0.00 0.00 49 1007.5
20260503181248 60 259 6.0 8.0 0.00 0.00 0.00 48 1007.6
20260503180748 61 252 8.0 13.0 0.00 0.00 0.00 48 1007.8
20260503180250 61 254 6.0 8.0 0.00 0.00 0.00 51 1007.9
20260503175748 60 264 5.0 7.0 0.00 0.00 0.00 48 1008.1
20260503175248 60 263 5.0 6.0 0.00 0.00 0.00 50 1008.3
20260503174719 61 248 6.0 8.0 0.00 0.00 0.00 53 1008.4
20260503174218 60 275 5.0 6.0 0.00 0.00 0.00 52 1008.5
20260503173648 59 258 6.0 8.0 0.00 0.00 0.00 54 1008.6
20260503173148 58 268 7.0 9.0 0.00 0.00 0.00 55 1008.8
20260503172648 58 266 8.0 14.0 0.00 0.00 0.00 56 1009.0
20260503172148 57 257 6.0 9.0 0.00 0.00 0.00 61 1009.3
20260503171648 56 274 6.0 7.0 0.00 0.00 0.00 60 1009.5
20260503171148 55 251 5.0 7.0 0.00 0.00 0.00 60 1009.5
20260503170648 55 262 6.0 9.0 0.00 0.00 0.00 60 1009.7
20260503170148 56 268 6.0 8.0 0.00 0.00 0.00 60 1009.7
20260503150717 57 274 5.0 9.0 0.00 0.00 0.00 54 1011.1
20260503150217 57 281 6.0 8.0 0.00 0.00 0.00 54 1011.1
20260503131417 52 270 5.0 9.0 0.00 0.00 0.00 57 1011.9
20260503130917 52 281 5.0 12.0 0.00 0.00 0.00 57 1011.9
20260503130417 52 281 3.0 6.0 0.00 0.00 0.00 57 1011.9
20260503110716 49 278 5.0 7.0 0.00 0.00 0.00 57 1011.6
20260503110216 49 292 3.0 9.0 0.00 0.00 0.00 57 1011.7
20260503090319 47 287 2.0 3.0 0.00 0.00 0.00 58 1012.4
20260503081616 47 284 3.0 6.0 0.00 0.00 0.00 59 1012.7
20260503081116 47 268 1.0 5.0 0.00 0.00 0.00 59 1012.7
20260503080616 46 272 2.0 3.0 0.00 0.00 0.00 59 1012.9
20260503072445 45 288 2.0 2.0 0.00 0.00 0.00 63 1012.9
20260503071915 45 274 0.0 2.0 0.00 0.00 0.00 63 1013.0
20260503071345 44 292 2.0 5.0 0.00 0.00 0.00 63 1013.0
20260503070845 44 274 0.0 1.0 0.00 0.00 0.00 63 1013.0
20260503070345 44 271 0.0 0.0 0.00 0.00 0.00 63 1013.1
20260503060115 44 254 0.0 0.0 0.00 0.00 0.00 64 1013.5
20260503055045 44 246 0.0 0.0 0.00 0.00 0.00 63 1013.7
20260503054515 44 246 0.0 0.0 0.00 0.00 0.00 63 1013.6
20260503054015 44 270 0.0 1.0 0.00 0.00 0.00 63 1013.7
20260503053515 44 264 1.0 1.0 0.00 0.00 0.00 63 1013.7
20260503053015 44 270 0.0 3.0 0.00 0.00 0.00 64 1013.7
20260503052445 44 256 1.0 1.0 0.00 0.00 0.00 64 1013.8
20260503051945 44 253 0.0 0.0 0.00 0.00 0.00 63 1013.8
20260503051415 44 258 0.0 0.0 0.00 0.00 0.00 63 1013.8
20260503050915 45 266 1.0 2.0 0.00 0.00 0.00 64 1013.9
20260503050415 45 240 0.0 0.0 0.00 0.00 0.00 63 1013.9
20260503045915 45 281 1.0 2.0 0.00 0.00 0.00 64 1014.0
20260503045415 45 277 0.0 0.0 0.00 0.00 0.00 64 1013.9
20260503044915 45 264 0.0 0.0 0.00 0.00 0.00 64 1013.9
20260503044345 45 287 1.0 2.0 0.00 0.00 0.00 64 1013.9
20260503043845 45 286 2.0 3.0 0.00 0.00 0.00 64 1013.9
20260503043315 45 250 0.0 0.0 0.00 0.00 0.00 64 1013.9
20260503042815 45 250 0.0 0.0 0.00 0.00 0.00 63 1013.9
20260503042315 45 292 2.0 2.0 0.00 0.00 0.00 63 1014.0
20260503041815 45 287 0.0 0.0 0.00 0.00 0.00 63 1014.0
20260503041245 45 290 1.0 5.0 0.00 0.00 0.00 63 1014.0
20260503040745 45 286 1.0 2.0 0.00 0.00 0.00 62 1014.0
20260503040244 45 275 1.0 1.0 0.00 0.00 0.00 62 1014.0
20260503035744 45 265 0.0 0.0 0.00 0.00 0.00 62 1014.1
20260503035214 45 265 0.0 0.0 0.00 0.00 0.00 62 1014.1
20260503034644 45 290 1.0 1.0 0.00 0.00 0.00 62 1014.2
20260503034114 45 257 0.0 0.0 0.00 0.00 0.00 61 1014.1